User: anonymous   Login
Location: Unspecified
(0.0000°N, 0.0000°E)
Time: 03:42:56
(UTC+00:00)
Language:

AO-Echo - Orbit

View from above orbital plane
View from above orbital plane
View from above satellite
View from above satellite

Ground track
Ground track

The orbit data is extracted from the following two-line orbital elements,

1 28375U 04025K   17268.50257169  .00000049  00000-0  27850-4 0  9994
2 28375  98.3617 199.8909 0082253 341.8680  17.9580 14.41854478696272
Epoch (UTC): 25 September 2017 12:03:42
Eccentricity: 0.0082253
inclination: 98.3617°
perigee height: 694 km
apogee height: 811 km
right ascension of ascending node: 199.8909°
argument of perigee: 341.8680°
revolutions per day: 14.41854478
mean anomaly at epoch: 17.9580°
orbit number at epoch: 69627

The dashed part of the orbit path shows where the satellite is in the earth's shadow,  

DLR